Regional Weather Roundup
Issued by NWS Upton, NY

Current Version | Previous Version | Graphics & Text | Print | Product List | Glossary On
Versions: 1 2 3 4 5 6 7 8 9 10 11 12 13 14 15 16 17 18 19 20 21 22 23 24 25 26 27 28 29 30 31 32 33 34 35 36 37 38 39 40 41 42 43 44 45 46 47 48 49 50
000
ASUS41 KOKX 210707
RWROKX

REGIONAL WEATHER ROUNDUP
NATIONAL WEATHER SERVICE NEW YORK NY
300 AM EDT TUE APR 21 2015

NOTE: "FAIR" INDICATES FEW OR NO CLOUDS BELOW 12,000 FEET WITH NO
SIGNIFICANT WEATHER AND/OR OBSTRUCTIONS TO VISIBILITY.

NYZ071-072-176-178-NJZ106-104-210800-
NEW YORK CITY METRO AREA


CITY           SKY/WX    TMP DP  RH WIND       PRES   REMARKS
CENTRAL PARK   LGT RAIN  53  53 100 CALM      29.59F FOG
LAGUARDIA APRT RAIN      53  50  89 NW9       29.55F FOG
KENNEDY INTL   LGT RAIN  52  50  93 NW7       29.56F FOG
NEWARK/LIBERTY RAIN      55  54  96 NW9       29.57S FOG
BRNX BOT. GARD   N/A     52  52 100 SW6       29.59F
TETERBORO      LGT RAIN  54  52  93 SW3       29.57R FOG
$$

NYZ177-179-078>081-210800-
LONG ISLAND NEW YORK

CITY           SKY/WX    TMP DP  RH WIND       PRES   REMARKS
FARMINGDALE    CLOUDY    53  52  96 W5        29.55F
ISLIP          CLOUDY    53  53 100 S7        29.54F FOG
SHIRLEY        CLOUDY    54  53  97 S8        29.57F FOG
WESTHAMPTON    LGT RAIN  55  54  96 SW9G18    29.59S
MONTAUK POINT    N/A     53  51  93 VRB7      29.58F
$$

NYZ052-065-067-210800-
HUDSON VALLEY

CITY           SKY/WX    TMP DP  RH WIND       PRES   REMARKS
WHITE PLAINS   LGT RAIN  54  53  97 NW6       29.56S
NEWBURGH       MOCLDY    54  54 100 SW12      29.60R
MONTGOMERY     RAIN      53  32  44 N5        29.55F
POUGHKEEPSIE   CLOUDY    54  52  93 S3        29.57F
ALBANY         LGT RAIN  51  48  89 N8        29.58F
$$

NJZ001-105-106-008-010-013-015-019>022-104-210800-
NEW JERSEY

CITY           SKY/WX    TMP DP  RH WIND       PRES   REMARKS
NEWARK/LIBERTY RAIN      55  54  96 NW9       29.57S FOG
TETERBORO      LGT RAIN  54  52  93 SW3       29.57R FOG
CALDWELL       LGT RAIN  55  54  96 S3        29.60R
MORRISTOWN     RAIN      57  55  94 CALM      29.59S
SOMERVILLE     LGT RAIN  56  54  93 CALM      29.56S VSB 3/4
SUSSEX         LGT RAIN  54  52  93 CALM      29.59F
ANDOVER          N/A     54  53  97 CALM      29.57F
TRENTON        RAIN      58  55  90 N6        29.57F FOG
MILLVILLE      CLOUDY    62  57  83 NW12      29.58R
ATLANTIC CITY  MOCLDY    60  56  86 S9        29.55F
WRIGHTSTOWN    LGT RAIN  60  59  97 NW8       29.56R
TOMS RIVER     CLOUDY    59  57  94 NW10G23   29.58R
BELMAR         CLOUDY    61  54  77 W9        29.57R
$$

PAZ047>061-062-071-210800-
EASTERN PENNSYLVANIA

CITY           SKY/WX    TMP DP  RH WIND       PRES   REMARKS
PHILADELPHIA   LGT RAIN  61  57  87 CALM      29.59R
ALLENTOWN      CLOUDY    55  53  93 CALM      29.56F
SCRANTON       RAIN      55  52  89 MISG      29.54F FOG
$$

CTZ002-004>006-009-010-012-RIZ004-006-007-MAZ004-011-015-210800-
SOUTHERN NEW ENGLAND
 IN CT

CITY           SKY/WX    TMP DP  RH WIND       PRES   REMARKS
BRADLEY INTL   TSTM      50  48  93 N10       29.56F FOG
HARTFORD       TSTM      50  49  96 VRB6      29.56F
DANBURY        CLOUDY    54  53  97 W3        29.59R
WTRBRY/OXFORD  CLOUDY    55  50  82 SE6       29.57S
BRIDGEPORT     CLOUDY    49  49 100 E3        29.56F FOG
MERIDEN        CLOUDY    54  52  93 CALM      29.56F
NEW HAVEN      CLOUDY    54  54 100 E5        29.55F FOG
CHESTER        CLOUDY    54  54 100 CALM      29.58S
GROTON         FOG       50  50 100 S8G24     29.57F VSB 1/4
WILLIMANTIC    TSTM      55  53  93 VRB3      29.58F VSB 3/4

 IN RI

CITY           SKY/WX    TMP DP  RH WIND       PRES   REMARKS
PROVIDENCE     FOG       52  51  97 S7        29.61F VSB 1/2
BLOCK ISLAND   CLOUDY    54  50  87 S14       29.59F VSB 1/4
WESTERLY       FOG       52  52 100 S20G25    29.58F VSB 1/4

 IN MA

CITY           SKY/WX    TMP DP  RH WIND       PRES   REMARKS
BOSTON         FOG       48  48 100 E8        29.63F VSB 1/2
WORCESTER      LGT RAIN  49  48  97 NE6       29.59F VSB 1/4
WESTFIELD      TSTM      49  47  93 NE9       29.59R VSB 1
PROVINCETOWN   CLOUDY   N/A N/A N/A SE18G26   29.66F
NANTUCKET      LGT RAIN  51  50  96 SE20      29.66F VSB 1/2
$$

ANZ330-335-338-340-345-350-353-355-210800-
COASTAL MARINE OBSERVATIONS


STATION/POSITION TIME  SKY/WX   TEMP    WIND        PRES    VSBY  WAVE
                                AIR SEA DIR/SP/G                  HT/PER
                 (UTC)          (F)     (DEG/KT/KT) (MB)    (MI)  (FT/S)
NY HARB ENTRANCE 0650            47 44  230/  6/  8  999.9          8/11
4S FIRE IS       0603               43                N/A           9/10
20S FIRE ISLAND  0550               43              1001.8         10/10
23SW MTP         NOT AVBL
HUDSON CANYON    NOT AVBL
EXECUTION ROCKS  NOT AVBL
WESTERN LI SOUND NOT AVBL
CENTRAL LI SOUND NOT AVBL
EASTERN LI SOUND 0600            45     120/  8/ 10   N/A
ROBBINS REEF     0600            51     360/  2/  3 1000.0
$$


>>>>>>>>>>>>>>>>>>>>>>>>>>>> KEY <<<<<<<<<<<<<<<<<<<<<<<<<<<
>                                                          <
>     SKY/WX - SKY CONDITION/PRESENT WEATHER               <
>     TMP    - TEMPERATURE IN FAHRENHEIT                   <
>     DP     - DEWPOINT IN FAHRENHEIT                      <
>     RH     - RELATIVE HUMIDITY IN PERCENT                <
>     WIND   - DIRECTION AND SPEED IN MPH                  <
>     PRES   - MEAN SEA LEVEL PRESSURE IN INCHES OF HG     <
>     WCI    - WIND CHILL INDEX                            <
>     VSB    - VISIBILITY IN MILES                         <
>     HX     - HEAT INDEX                                  <
>     TC     - TEMPERATURE IN CELSIUS                      <
>     VRB    - VARIABLE WIND DIRECTION                     <
>                                                          <
>>>>>>>>>>>>>>>>>>>>>>>>>>>> KEY <<<<<<<<<<<<<<<<<<<<<<<<<<<





USA.gov is the U.S. government's official web portal to all federal, state and local government web resources and services.